Tracking 30743 objects as of 20-Jun-2025
HD Live streaming from Space Station
objects crossing your sky now

THOR ABLESTAR DEB

Track THOR ABLESTAR DEB now!
10-day predictions


NORAD ID: 410
Int'l Code: 1961-015EK
Perigee: 967.4 km
Apogee: 999.3 km
Inclination: 66.7 °
Period: 104.6 minutes
Semi major axis: 7354 km
RCS: 0.1102 m2 (medium)
Launch date: June 29, 1961
Source: United States (US)
Launch site: AIR FORCE EASTERN TEST RANGE (AFETR)

Note: This is SATELLITE DEBRIS
Your satellite tracking list
Your tracking list is empty




NASA's NSSDC Master Catalog

Two Line Element Set (TLE):
1   410U 61015EK  25170.37339019  .00000017  00000-0  93209-4 0  9993
2   410  66.6909 187.3490 0021694 255.0395 205.2852 13.76533084210621
Source of the keplerian elements: AFSPC